This demonstration page uses our WeatherBlox Daily Observations layout. Learn more.

Left ArrowRight Arrow

Hourly Observations for July 3, 2022

Temp ( °F °C ) Dew Point ( °F °C ) Humidity (%) Winds ( mph kmh ) Pressure ( in mb ) Visibility ( mi km ) Precip ( " mm )
12:05 am 00:05 Cloudy with Strong Thunderstorms 68 20 52 11.1 57 57 SE 6 9 29.84 1011 4 6 0.03 0.76
12:19 am 00:19 Cloudy with Nearby Thunderstorms 66 18.9 54 12.2 65 65 SE 15 24 29.85 1011 6 10 0.06 1.52
12:49 am 00:49 Cloudy 63 17 57 14 83 83 ESE 14 22 29.85 1011 10 16 0.06 1.52
12:53 am 00:53 Cloudy 63 17.2 57 13.9 81 81 NE 9 15 29.88 1012 10 16 0.06 1.52
1:53 am 01:53 Clear 61 16.1 56 13.3 84 84 E 10 17 29.87 1011 10 16 0.00 0.00
2:53 am 02:53 Clear 61 16.1 56 13.3 84 84 ESE 13 20 29.85 1011 10 16 0.00 0.00
3:53 am 03:53 Mostly Cloudy 60 15.6 56 13.3 86 86 NE 8 13 29.86 1011 10 16 0.00 0.00
4:53 am 04:53 Mostly Clear 60 15.6 56 13.3 86 86 Calm 29.88 1012 10 16 0.00 0.00
5:53 am 05:53 Sunny 59 15 54 12.2 83 83 NE 9 15 29.87 1011 10 16 0.00 0.00
6:53 am 06:53 Sunny 62 16.7 55 12.8 78 78 NE 12 19 29.85 1011 10 16 0.00 0.00
7:53 am 07:53 Sunny 65 18.3 56 13.3 73 73 NE 13 20 29.88 1012 10 16 0.00 0.00
8:53 am 08:53 Sunny 69 20.6 57 13.9 66 66 E 15 24 29.88 1012 10 16 0.00 0.00
9:53 am 09:53 Partly Cloudy 68 20 57 13.9 68 68 E 16 26 29.87 1012 10 16 0.00 0.00
10:53 am 10:53 Mostly Cloudy 70 21.1 57 13.9 64 64 E 14 22 29.85 1011 10 16 0.00 0.00
11:53 am 11:53 Cloudy 70 21.1 56 13.3 61 61 E 14 22 29.87 1011 10 16 0.00 0.00
12:44 pm 12:44 Cloudy with Thunderstorms 68 20 57 14 69 69 ESE 9 15 29.80 1009 10 16 0.00 0.00
12:53 pm 12:53 Cloudy with Thunderstorms 66 18.9 59 15 78 78 ESE 12 19 29.88 1012 6 10 0.00 0.00
1:03 pm 13:03 Cloudy with Light Rain 65 18.3 61 16.1 87 87 ESE 3 6 29.83 1010 6 10 0.02 0.51
1:53 pm 13:53 Cloudy 67 19.4 61 16.1 81 81 NE 3 6 29.88 1012 10 16 0.04 1.02
2:53 pm 14:53 Cloudy 66 18.9 61 16.1 84 84 Calm 29.88 1012 10 16 0.00 0.00
3:53 pm 15:53 Cloudy with Rain 66 18.9 62 16.7 87 87 N 3 6 29.90 1012 4 6 0.02 0.51
4:31 pm 16:31 Cloudy with Light Rain 66 18.9 63 17.2 90 90 N 7 11 29.81 1010 10 16 0.06 1.52
4:53 pm 16:53 Cloudy 66 18.9 63 17.2 90 90 N 8 13 29.87 1011 10 16 0.06 1.52
5:53 pm 17:53 Mostly Cloudy 66 18.9 62 16.7 87 87 NE 14 22 29.86 1011 10 16 0.00 0.00
6:29 pm 18:29 Cloudy 66 18.9 62 16.7 87 87 NE 10 17 29.80 1009 10 16 0.00 0.00
6:53 pm 18:53 Cloudy 66 18.9 62 16.7 87 87 NE 8 13 29.87 1012 10 16 0.00 0.00
7:12 pm 19:12 Cloudy 66 18.9 62 16.7 87 87 NNE 8 13 29.81 1010 10 16 0.00 0.00
7:53 pm 19:53 Cloudy 65 18.3 62 16.7 90 90 NE 13 20 29.86 1011 10 16 0.00 0.00
8:13 pm 20:13 Cloudy 65 18.3 62 16.7 90 90 NNE 8 13 29.82 1010 10 16 0.00 0.00
8:28 pm 20:28 Mostly Cloudy 64 18 61 16 88 88 NNE 7 11 29.82 1010 10 16 0.00 0.00
8:38 pm 20:38 Mostly Cloudy 64 17.8 61 16.1 90 90 NNE 8 13 29.82 1010 10 16 0.00 0.00
8:45 pm 20:45 Partly Cloudy 64 17.8 61 16.1 90 90 N 7 11 29.82 1010 10 16 0.00 0.00
8:53 pm 20:53 Mostly Cloudy 64 17.8 61 16.1 90 90 N 7 11 29.86 1011 10 16 0.00 0.00
9:33 pm 21:33 Mostly Cloudy 62 16.7 61 16.1 96 96 NNE 12 19 29.82 1010 10 16 0.00 0.00
9:53 pm 21:53 Mostly Clear 62 16.7 59 15 90 90 NNE 12 19 29.86 1011 10 16 0.00 0.00
10:53 pm 22:53 Clear 61 16.1 59 15 93 93 NNE 7 11 29.86 1011 10 16 0.00 0.00
11:23 pm 23:23 Cloudy 61 16.1 59 15 93 93 Calm 29.84 1010 10 16 0.00 0.00
11:39 pm 23:39 Mostly Cloudy 61 16.1 59 15 93 93 Calm 29.84 1010 10 16 0.00 0.00
11:53 pm 23:53 Partly Cloudy 60 15.6 59 15 96 96 Calm 29.87 1012 10 16 0.00 0.00

Powered by AerisWeather